Regional Weather Roundup
Issued by NWS Bismarck, ND

Home | Current Version | Previous Version | Text Only | Print | Product List | Glossary On
Versions: 1 2 3 4 5 6 7 8 9 10 11 12 13 14 15 16 17 18 19 20 21 22 23 24 25 26 27 28 29 30 31 32 33 34 35 36 37 38 39 40 41 42 43 44 45 46 47 48 49 50
000
ASUS43 KBIS 251810
RWRBIS

NWR BROADCAST TEXT
NATIONAL WEATHER SERVICE BISMARCK ND
100 PM CDT FRI JUL 25 2014

NOTE: "FAIR" INDICATES FEW OR NO CLOUDS BELOW 12,000 FEET WITH NO
SIGNIFICANT WEATHER AND/OR OBSTRUCTIONS TO VISIBILITY.


CITY           SKY/WX    TMP DP  RH WIND       PRES   REMARKS
WILLISTON      SUNNY     77  41  27 W16G28    29.83F
MINOT          SUNNY     75  47  36 W17G26    29.82F
MINOT AFB      SUNNY     73  54  50 W15G21    29.81F
BISMARCK       SUNNY     80  48  32 NW12      29.86F
DICKINSON      SUNNY     74  45  35 SW9       29.89F
GARRISON         N/A     74  50  42 NW12      29.86F
HETTINGER ARPT SUNNY     76  41  28 N9        29.93F
JAMESTOWN      MOSUNNY   77  54  44 NW22G29   29.81R
CARRINGTON     FAIR      73  55  53 N15G21    29.83S
CROSBY         FAIR      70  50  49 W16G22    29.81F
HARVEY         FAIR      73  55  53 NW12      29.84R
HAZEN          FAIR      75  45  33 NW12      29.87F
LINTON         FAIR      79  48  34 NW12G20   29.86S
MANDAN         FAIR      75  48  38 NW16G22   29.88S
RUGBY          FAIR      72  57  60 W13       29.81S
STANLEY        FAIR      72  48  43 SW10G20   29.85F
TIOGA          FAIR      72  48  43 W17       29.87F
WATFORD CITY   FAIR      73  45  35 W15       29.84F
$$

CITY           SKY/WX    TMP DP  RH WIND       PRES   REMARKS
GRAND FORKS    PTSUNNY   77  67  71 S6        29.74S
GRAND FORKS AF PTSUNNY   79  71  76 SW8       29.75S
DEVILS LAKE    SUNNY     75  52  43 NW16      29.79S
FARGO          CLOUDY    76  66  71 N6        29.76F
CANDO          FAIR      75  54  46 NW13G18   29.80F
CAVALIER       MOCLDY    77  66  69 W13       29.72S
GRAFTON        MOCLDY    77  68  73 SW7       29.73S
GWINNER        CLOUDY    73  72  94 N10       29.80S
LANGDON        FAIR      75  54  46 NW18G24   29.78S
ROLLA            N/A     72  52  49 W15G21    29.82S
WALHALLA       FAIR      77  64  65 NW17G23     N/A
$$

CITY           SKY/WX    TMP DP  RH WIND       PRES   REMARKS
ABERDEEN       CLOUDY    71  67  87 NE12      29.81R
MOBRIDGE       SUNNY     80  45  28 N15G24    29.84R
BUFFALO          N/A     75  41  29 W6        29.89F
RAPID CITY     SUNNY     76  43  30 VRB6      29.98F
GLASGOW        SUNNY     78  35  21 W22G31    29.80F
SIDNEY         SUNNY     79  39  24 SW17G24   29.85F
WOLF POINT     SUNNY     79  38  22 W21G26    29.81F
GLENDIVE       SUNNY     79  45  29 SW16G23   29.88F
MILES CITY     SUNNY     80  39  23 W10G22    29.88F
BAKER          SUNNY     79  39  23 W13G20    29.93F
$$

CITY           SKY/WX    TMP DP  RH WIND       PRES   REMARKS
BILLINGS       SUNNY     78  37  22 VRB7      29.95F
GREAT FALLS    SUNNY     71  34  25 SW18G29   29.91F
REGINA         SUNNY     70  50  49 SW21      29.71S
ESTEVAN        MOSUNNY   70  50  49 SW16G23   29.79F
$$



USA.gov is the U.S. government's official web portal to all federal, state and local government web resources and services.